Port Angeles, WA
on Friday, January 18, 2013

Friday
Previous Day Next Day
Daily Summary
 ActualAverageRecord
Temperature
Mean Temperature °F °F  
Max Temperature 39°F 47°F 61°F (2005)
Min Temperature 34°F 35°F 21°F (1950)
Degree Days
Heating Degree Days 28    
Moisture
Dew Point 35°F   
Average Humidity 92    
Maximum Humidity 100    
Minimum Humidity 86    
Precipitation
Precipitation 0.00 in in in ()
Wind
Wind Speed 6 mph   
Max Wind Speed 8 mph   
Max Gust Speed mph   
Visibility 7 miles   
Events Fog   
Averages and records for this station are not official NWS values.
Key: T is trace of precipitation, MM is missing value
Source: NWS Daily Summary
Seasonal Weather Averages
Time(PST)TemperatureDew PointHumidity Pressure Visibility Wind DirectionWind SpeedGust SpeedPrecipitationEvents Conditions
12:05 AM 34.0°F 33.1°F 96% 30.28 in 1.0 miles North - - N/A   Overcast
12:28 AM 35.1°F 33.1°F 92% 30.28 in 1.2 miles North - - N/A   Overcast
12:50 AM 37.4°F 35.6°F 93% 30.27 in 0.5 miles North - - N/A Fog Fog
12:53 AM 37.0°F 35.1°F 93% 30.28 in 0.5 miles North - - N/A Fog Fog
1:53 AM 35.1°F 34.0°F 96% 30.29 in 0.5 miles North - - N/A Fog Fog
2:19 AM 35.1°F 34.0°F 96% 30.28 in 2.0 miles North - - N/A   Overcast
2:26 AM 35.1°F 34.0°F 96% 30.29 in 7.0 miles North - - N/A   Overcast
2:53 AM 35.1°F 34.0°F 96% 30.29 in 3.0 miles North - - N/A   Overcast
3:47 AM 35.6°F 35.6°F 100% 30.26 in 2.5 miles North - - N/A   Overcast
3:53 AM 35.1°F 34.0°F 96% 30.27 in 1.8 miles North - - N/A   Overcast
4:08 AM 35.1°F 34.0°F 96% 30.26 in 0.5 miles North - - N/A Fog Fog
4:29 AM 35.1°F 34.0°F 96% 30.26 in 1.0 miles North - - N/A   Overcast
4:41 AM 35.1°F 34.0°F 96% 30.27 in 3.0 miles North - - N/A   Overcast
4:53 AM 35.1°F 34.0°F 96% 30.29 in 8.0 miles North - - N/A   Overcast
5:53 AM 36.0°F 35.1°F 97% 30.28 in 8.0 miles North - - N/A   Overcast
6:53 AM 35.1°F 33.1°F 92% 30.26 in 7.0 miles SW 5.8 mph - N/A   Overcast
7:50 AM 35.6°F 33.8°F 93% 30.27 in 10.0 miles SSW 6.9 mph - N/A   Overcast
7:53 AM 36.0°F 34.0°F 93% 30.28 in 10.0 miles South 6.9 mph - N/A   Overcast
8:53 AM 37.0°F 34.0°F 89% 30.30 in 10.0 miles South 5.8 mph - N/A   Overcast
9:53 AM 37.9°F 36.0°F 93% 30.31 in 10.0 miles SSE 3.5 mph - N/A   Overcast
10:53 AM 37.9°F 36.0°F 93% 30.31 in 10.0 miles SSE 5.8 mph - N/A   Overcast
11:53 AM 39.0°F 36.0°F 89% 30.32 in 10.0 miles SE 6.9 mph - N/A   Overcast
12:53 PM 39.0°F 36.0°F 89% 30.32 in 10.0 miles SE 6.9 mph - N/A   Overcast
1:53 PM 39.9°F 36.0°F 86% 30.30 in 10.0 miles East 6.9 mph - N/A   Overcast
2:53 PM 39.9°F 36.0°F 86% 30.31 in 10.0 miles SE 6.9 mph - N/A   Overcast
3:53 PM 39.0°F 36.0°F 89% 30.32 in 10.0 miles SE 3.5 mph - N/A   Overcast
4:53 PM 37.9°F 35.1°F 89% 30.32 in 10.0 miles SE 5.8 mph - N/A   Overcast
5:53 PM 37.9°F 35.1°F 89% 30.32 in 10.0 miles SSE 4.6 mph - N/A   Overcast
6:53 PM 37.9°F 35.1°F 89% 30.31 in 10.0 miles SE 5.8 mph - N/A   Overcast
7:53 PM 37.0°F 35.1°F 93% 30.32 in 10.0 miles SSE 6.9 mph - N/A   Overcast
8:53 PM 37.0°F 34.0°F 89% 30.33 in 10.0 miles SSE 8.1 mph - N/A   Overcast
9:53 PM 37.9°F 34.0°F 86% 30.34 in 10.0 miles SSE 8.1 mph - N/A   Overcast
10:53 PM 37.9°F 34.0°F 86% 30.34 in 10.0 miles SSE 5.8 mph - N/A   Overcast
11:15 PM 37.9°F 34.0°F 86% 30.34 in 10.0 miles SE 8.1 mph - N/A   Overcast
11:53 PM 37.9°F 34.0°F 86% 30.35 in 10.0 miles SE 6.9 mph - N/A   Overcast
Moon Phase
Jan. 18 Jan. 18 Jan. 26 Feb. 03 Feb. 10
Sunrise:07:56 AM (PST) Moon Rise:10:59 AM (PST)1/18
Sunset:04:52 PM (PST) Moon Set:12:25 AM (PST)1/18

Copyright © 2014 The Weather Underground, Inc.